FENGYUN 1C DEB, 31996

Orbit data source: Space-Track

FENGYUN 1C DEB, 31996 is space debris in SSO originally from a launch on Mon, 10 May 1999 UTC launched from the Taiyaun Space Center, China (TSC). Fengyun 1C debris stems from the Chinese weather satellite Fengyun-1C, which was intentionally destroyed by a Chinese anti-satellite missile in 2007. This event dramatically increased the amount of space debris, with thousands of trackable fragments posing hazards to satellites and human spaceflight. The Fengyun 1C debris cloud has become a focal point in discussions about space sustainability and the need for international regulations to prevent the creation of new debris.

Loading next visibility...
Identifier
31996, 1999-025CPZ
Orbit
SSO
Country
Flag of CNCN / PRC
Related business
Manufacturer
Unknown
Mission
Spacecraft
Bus & Motor
Unknown
Mass
Unknown
Launch date (UTC)
1999-05-10 (27 years ago)
Launch vehicle
Unknown
Launch site
Taiyaun Space Center, China (TSC)
Object type
Payload
Rocket body
Debris
Shape & HBR
Unknown shape, 1.1 m
Radar Cross Section
Medium (>0.1 m² and <1 m²)

Expand to show TLE details & history
Last TLE update: 2 months ago

TLE from 2 months ago
0 FENGYUN 1C DEB
1 31996U 99025CPZ 26112.57875552  .00001888  00000-0  19627-2 0  9991
2 31996  99.2945  44.2225 0295018 147.0091 214.9845 13.59302385564652
Epoch: 2026-04-22T13:53Z
TLE epoch observation values (Epoch: 2026-04-22T13:53:24.476Z)
Latitude
-0.00006°
Longitude
-14.76764°
Altitude
1,222.388 km
Speed
7.154 km/s
True Right ascension
02h 56m 53s
True Declination
0° 00' 00"
Sunlit
Object was in daylight at epoch
Visualization orbit readout
Latitude
Unknown
Longitude
Unknown
Altitude
Unknown
Speed
Unknown
Apparent Right ascension
Unknown
Apparent Declination
Unknown
Sunlit
N/A
Visualization observer readout
Local Sidereal Time
08:38:12
Azimuth
Unknown
Elevation
Unknown
Doppler factor
Unknown
Orbital elements
Apogee altitude
1,254.209 km
Perigee altitude
816.778 km
Semi-major axis
7,413.63 km
Eccentricity
0.0295
Inclination
99.2945°
RAAN
44.2225°
Arg. of periapsis
147.0091°
True anomaly
213.10343°
Mean anomaly
214.9845°
Eccentric anomaly
214.03834°
Mean motion
3.40014 °/min
Orbital period
105.88 mins
BSTAR
0.0019627
Loading maneuver chart data...
Computing Atmospheric mass density...
Loading historical data...
Loading historical data...
Loading historical data...
Loading historical data...
Loading historical data...
Loading historical data...
Loading historical data...

Documentation

Showing up to 5 results
|